Regional Weather Roundup
Issued by NWS Grand Forks, ND

Home | Current Version | Previous Version | Text Only | Print | Product List | Glossary Off
Versions: 1 2 3 4 5 6 7 8 9 10 11 12 13 14 15 16 17 18 19 20 21 22 23 24 25 26 27 28 29 30 31 32 33 34 35 36 37 38 39 40 41 42 43 44 45 46 47 48 49 50

000
ASUS43 KFGF 310031
RWRFGF
PRAIRIE TO PINES  WEATHER ROUNDUP
NATIONAL WEATHER SERVICE EASTERN NORTH DAKOTA/GRAND FORKS ND
700 PM CDT SUN AUG 30 2015

 **SATELLITE DATA USED TO AUGMENT SKY COVER AT AUTOMATED STATIONS**
 *****  WEATHER ACROSS EASTERN NORTH DAKOTA  *****

CITY           SKY/WX    TMP DP  RH WIND       PRES   REMARKS
GRAND FORKS    CLOUDY    84  68  58 S17G23    29.65F
6HR MIN TEMP:  80; 6HR MAX TEMP:  88;

GRAND FRKS AFB CLOUDY    83  71  66 S14       29.66F
GRAND FRKS NWS   N/A     82 N/A N/A S9          N/A
DEVILS LAKE    PTSUNNY   82  66  57 S15       29.62F
6HR MIN TEMP:  82; 6HR MAX TEMP:  90;

FARGO          MOSUNNY   84  68  58 S18G25    29.71F
WAHPETON ARPT  PTCLDY    79  66  65 SE14      29.76S
$$

 ***** WEATHER ACROSS CENTRAL AND WESTERN NORTH DAKOTA  *****

CITY           SKY/WX    TMP DP  RH WIND       PRES   REMARKS
BISMARCK       MOSUNNY   96  57  27 CALM      29.63S HX  95
6HR MIN TEMP:  86; 6HR MAX TEMP:  98;

MINOT          CLOUDY    80  57  45 W8        29.65S HAZE
6HR MIN TEMP:  80; 6HR MAX TEMP:  93;

JAMESTOWN      PTSUNNY   82  67  60 S15       29.69R
6HR MIN TEMP:  82; 6HR MAX TEMP:  88;

MINOT AFB      PTSUNNY   84  60  43 NW8       29.64S
GARRISON         N/A     83  58  42 N13       29.67S
WILLISTON      MOSUNNY   83  45  26 NE10      29.71S
6HR MIN TEMP:  83; 6HR MAX TEMP:  87;

DICKINSON      NOT AVBL
HETTINGER      MOSUNNY   92  49  22 N6        29.73S
6HR MIN TEMP:  92; 6HR MAX TEMP:  99;

$$

 *****  OTHER AIRPORT OBSERVATIONS IN OUR AREA  *****

CITY           SKY/WX    TMP DP  RH WIND       PRES   REMARKS
WALHALLA       FAIR      84  70  61 MISG      29.60F
GRAFTON AIRPOR FAIR      81  72  74 S15       29.64F
VALLEY CITY AR FAIR      82  66  57 S14G22    29.70S
CANDO          FAIR      84  68  58 S9        29.63R
CAVALIER APRT  FAIR      84  70  61 S9        29.62S
GWINNER        FAIR      82  66  57 S9        29.73S
ROLLA            N/A     82  59  44 SW8       29.63R
 ***** THE ABOVE OBSERVATIONS ARE NON NWS ARE NOT QUALITY
       CONTROLLED AND MAY MIS-REPORT RAIN FOR SNOW...
$$

  *****  WEATHER ACROSS NORTHERN MINNESOTA  *****

CITY           SKY/WX    TMP DP  RH WIND       PRES   REMARKS
FLAG ISLAND    CLEAR     73  66  78 S15       29.71S
WARROAD        MOSUNNY   79  73  83 SE7       29.71F
ROSEAU         MOSUNNY   81  73  78 S8        29.70S
HALLOCK        PTSUNNY   82  70  65 S16       29.64F
THF RVR FALLS  MOSUNNY  N/A N/A N/A S9        29.71F
BAUDETTE       PTCLDY    79  70  74 S8        29.74F
6HR MIN TEMP:  79; 6HR MAX TEMP:  84;

WASKISH        PTCLDY    77  70  78 CALM      29.77S
CROOKSTON      MOSUNNY   82  68  61 S15       29.70S
STEPHEN NDAWN    N/A     81  70  69 S13         N/A
GREENBUSH NDAW   N/A     82  68  61 S8          N/A
$$
  *****  WEATHER ACROSS CENTRAL AND WEST MINNESOTA  *****

CITY           SKY/WX    TMP DP  RH WIND       PRES   REMARKS
FOSSTON        SUNNY     77  64  65 SE9       29.76F
BEMIDJI        PTCLDY    77  68  73 SE9       29.79F
PARK RAPIDS    CLEAR     79  67  66 S15       29.82F
6HR MIN TEMP:  79; 6HR MAX TEMP:  85;

ELBOW LAKE     FAIR      75  68  80 S13G20    29.81S
6HR MIN TEMP:  75; 6HR MAX TEMP:  80;

WADENA         SUNNY     75  66  73 SE10      29.83S
DETROIT LAKES  MOSUNNY   77  68  73 S12       29.81S
MOORHEAD       MOSUNNY   81  70  69 S12       29.74S
FERGUS FALLS   SUNNY     75  68  78 S13       29.78S
MORRIS MN      SUNNY     77  70  78 S13       29.82S
STAPLES        CLEAR     75  66  73 S8        29.85S
$$
  *****  WEATHER ELSEWHERE ACROSS MINNESOTA  *****

CITY           SKY/WX    TMP DP  RH WIND       PRES   REMARKS
DULUTH         CLEAR     76  65  68 SW10      29.88S
6HR MIN TEMP:  76; 6HR MAX TEMP:  81;

INTRNTL FALLS  MOCLDY    79  69  71 VRB6      29.78S
6HR MIN TEMP:  76; 6HR MAX TEMP:  83;

ELY            PTCLDY    75  66  73 S3        29.85S
CLOQUET        CLEAR     73  64  73 S6        29.88S
WHEATON        SUNNY     75  68  78 SE13G18   29.79S
BRAINERD       CLEAR     75  67  76 S10       29.86F
6HR MIN TEMP:  73; 6HR MAX TEMP:  79;

HIBBING        CLEAR     78  68  71 S5        29.85S
6HR MIN TEMP:  78; 6HR MAX TEMP:  84;

ALEXANDRIA     SUNNY     78  68  71 S10       29.86F
6HR MIN TEMP:  77; 6HR MAX TEMP:  81;

SAINT CLOUD    CLEAR     76  66  71 S8        29.88F
6HR MIN TEMP:  73; 6HR MAX TEMP:  80;

MINNEAPOLIS    PTCLDY    77  66  68 S13       29.91F
6HR MIN TEMP:  74; 6HR MAX TEMP:  81;

$$

  *****  WEATHER ACROSS SOUTH DAKOTA  *****

CITY           SKY/WX    TMP DP  RH WIND       PRES   REMARKS
SIOUX FALLS    CLOUDY    73  65  75 S9        29.90F
6HR MIN TEMP:  71; 6HR MAX TEMP:  76;

BROOKINGS      SUNNY     72  64  78 S14       29.89S
WATERTOWN      MOSUNNY   75  66  73 S16       29.83S
6HR MIN TEMP:  75; 6HR MAX TEMP:  81;

HURON          MOSUNNY   79  69  71 S17G24    29.78S
6HR MIN TEMP:  79; 6HR MAX TEMP:  85;

SISSETON         N/A     80  68  66 S10       29.76S
ABERDEEN       PTSUNNY   81  70  69 S18       29.73F
6HR MIN TEMP:  80; 6HR MAX TEMP:  85;

MITCHELL       SUNNY     79  68  69 S15G26    29.81F
PIERRE         MOSUNNY   91  55  29 SE14      29.67F HAZE
6HR MIN TEMP:  91; 6HR MAX TEMP:  99;

MOBRIDGE       SUNNY     89  61  38 SE13      29.63F HAZE
RAPID CITY     MOSUNNY   86  59  39 N13       29.73S
6HR MIN TEMP:  83; 6HR MAX TEMP:  99;

$$

  *****  SOME WEATHER IN NEARBY STATES *****

CITY           SKY/WX    TMP DP  RH WIND       PRES   REMARKS
GLASGOW MT     SUNNY     81  48  31 NW7       29.68F
6HR MIN TEMP:  63; 6HR MAX TEMP:  86; 6HR PCP:  0.01;

GREAT FALLS MT PTSUNNY   69  37  30 W32G48    29.76R
6HR MIN TEMP:  69; 6HR MAX TEMP:  81;

CHEYENNE WY    PTSUNNY   85  39  19 SW3       30.04R
6HR MIN TEMP:  85; 6HR MAX TEMP:  92;

SCOTTSBLUFF NE SUNNY     91  54  28 E6        29.83F
6HR MIN TEMP:  85; 6HR MAX TEMP:  97;

OMAHA NE       MOSUNNY   75  67  76 S12       29.96F
6HR MIN TEMP:  70; 6HR MAX TEMP:  77;

DES MOINES IA  MOCLDY    77  67  71 SE6       29.98F
6HR MIN TEMP:  73; 6HR MAX TEMP:  79;

DAVENPORT IA   CLEAR     72  67  84 E6        30.01F
6HR MIN TEMP:  72; 6HR MAX TEMP:  79;

CHICAGO IL     PTCLDY    72  64  76 E6        30.01F
6HR MIN TEMP:  70; 6HR MAX TEMP:  77;

EAU CLAIRE WI  CLEAR     73  64  73 S7        29.95F
6HR MIN TEMP:  73; 6HR MAX TEMP:  77;

LA CROSSE WI   CLEAR     73  64  73 SW9       29.97F
6HR MIN TEMP:  72; 6HR MAX TEMP:  76;

$$

  *****  SOME NATIONAL WEATHER *****

CITY           SKY/WX    TMP DP  RH WIND       PRES   REMARKS
LA GUARDIA NY  MOCLDY    83  67  58 S8        30.00S
6HR MIN TEMP:  83; 6HR MAX TEMP:  90;

RALEIGH NC     CLOUDY    78  62  57 S3        30.12F
6HR MIN TEMP:  78; 6HR MAX TEMP:  85;

ATLANTA GA     MOCLDY    72  64  76 E13       30.09S
6HR MIN TEMP:  71; 6HR MAX TEMP:  74;

NEW ORLEANS LA PTCLDY    84  66  54 S9        29.97F
6HR MIN TEMP:  84; 6HR MAX TEMP:  91;

OKLAHOMA CITY  PTSUNNY   87  62  43 SW5       29.93F
6HR MIN TEMP:  83; 6HR MAX TEMP:  90;

ALBUQUERQUE NM MOSUNNY   91  43  18 NW6       30.07F
6HR MIN TEMP:  81; 6HR MAX TEMP:  92;

SALT LAKE CITY PTSUNNY   87  44  22 N15       29.91F
6HR MIN TEMP:  79; 6HR MAX TEMP:  88; 6HR PCP: TRACE;

LOS ANGELES CA MOSUNNY   77  63  61 W12       29.84F
6HR MIN TEMP:  76; 6HR MAX TEMP:  82;

BOISE ID       SUNNY     78  37  22 NW5       29.95F


USA.gov is the U.S. government's official web portal to all federal, state and local government web resources and services.